Auburn, IN

4:54 AM EDT on April 24, 2018 (GMT -0400)
Auburn

Weather History for KGWB - April, 2013

Change the Weather History Date:

Monday, April 8, 2013

  Actual Average (KFWA) Record (KFWA)
Temperature  
Mean Temperature 56 °F -  
Max Temperature 71 °F 55 °F 79 °F (2001)
Min Temperature 41 °F 34 °F 15 °F (1972)
Degree Days  
Heating Degree Days 9    
Growing Degree Days 6 (Base 50)    
Moisture  
Dew Point 41 °F    
Average Humidity 66    
Maximum Humidity 88    
Minimum Humidity 38    
Precipitation  
Precipitation 0.11 in - - ()
Sea Level Pressure  
Sea Level Pressure 29.88 in    
Wind  
Wind Speed 8 mph (ESE)    
Max Wind Speed 21 mph    
Max Gust Speed 32 mph    
Visibility 9 miles    
Events Rain    
Averages and records for this station are not official NWS values.
T = Trace of Precipitation, MM = Missing Value Source: NWS Daily Summary

Daily Weather History Graph

Daily Weather History Graph

Search for Another Location

Airport or City:

Astronomy

Apr. 08, 2013 Rise Set
Actual Time 7:11 AM EDT 8:13 PM EDT
Civil Twilight 6:43 AM EDT 8:41 PM EDT
Nautical Twilight 6:09 AM EDT 9:15 PM EDT
Astronomical Twilight 5:34 AM EDT 9:50 PM EDT
Moon 6:02 AM EDT (4/8) 6:46 PM EDT (4/8)
Length of Visible Light 13h 58m
Length of Day
13h 01m
Waning Crescent, 3% of the Moon is Illuminated
Apr 8
Waning Crescent
Apr 10
New
Apr 18
First Quarter
Apr 25
Full
May 2
Last Quarter

Hourly Weather History & Observations

Time (EDT) Temp. Windchill Dew Point Humidity Pressure Visibility Wind Dir Wind Speed Gust Speed Precip Events Conditions
12:15 AM 41.0 °F 39.0 °F 32.0 °F 70% 30.00 in 10.0 mi ENE 3.5 mph - N/A   Clear
12:35 AM 41.0 °F 39.0 °F 32.0 °F 70% 30.00 in 10.0 mi East 3.5 mph - N/A   Clear
12:55 AM 41.0 °F 37.1 °F 32.0 °F 70% 30.00 in 10.0 mi East 5.8 mph - N/A   Clear
1:15 AM 42.8 °F 39.3 °F 32.0 °F 66% 30.00 in 10.0 mi East 5.8 mph - N/A   Clear
1:35 AM 42.8 °F 38.6 °F 32.0 °F 66% 30.00 in 10.0 mi East 6.9 mph - N/A   Clear
1:55 AM 42.8 °F 38.0 °F 32.0 °F 66% 29.99 in 10.0 mi East 8.1 mph - N/A   Clear
2:15 AM 41.0 °F 37.1 °F 32.0 °F 70% 29.99 in 10.0 mi East 5.8 mph - N/A   Clear
2:35 AM 42.8 °F 39.3 °F 32.0 °F 66% 29.99 in 10.0 mi East 5.8 mph - N/A   Clear
2:55 AM 42.8 °F 38.6 °F 32.0 °F 66% 29.99 in 10.0 mi East 6.9 mph - N/A   Clear
3:15 AM 41.0 °F 37.1 °F 32.0 °F 70% 29.98 in 10.0 mi East 5.8 mph - N/A   Clear
3:35 AM 42.8 °F 38.6 °F 32.0 °F 66% 29.98 in 10.0 mi East 6.9 mph - N/A   Clear
3:55 AM 41.0 °F 36.4 °F 32.0 °F 70% 29.97 in 10.0 mi East 6.9 mph - N/A   Clear
4:15 AM 41.0 °F 35.8 °F 32.0 °F 70% 29.95 in 10.0 mi East 8.1 mph - N/A   Clear
4:35 AM 41.0 °F 35.8 °F 33.8 °F 76% 29.95 in 10.0 mi East 8.1 mph - N/A   Clear
4:55 AM 41.0 °F 35.2 °F 33.8 °F 76% 29.95 in 10.0 mi ENE 9.2 mph - N/A   Clear
5:15 AM 41.0 °F 35.8 °F 33.8 °F 76% 29.94 in 10.0 mi East 8.1 mph - N/A   Clear
5:35 AM 41.0 °F 35.2 °F 33.8 °F 76% 29.93 in 10.0 mi East 9.2 mph - N/A   Clear
5:55 AM 41.0 °F 35.2 °F 33.8 °F 76% 29.92 in 10.0 mi East 9.2 mph - N/A   Clear
6:15 AM 41.0 °F 35.8 °F 33.8 °F 76% 29.92 in 10.0 mi East 8.1 mph - N/A   Clear
6:35 AM 41.0 °F 35.8 °F 33.8 °F 76% 29.92 in 10.0 mi East 8.1 mph - N/A   Clear
6:55 AM 41.0 °F 35.8 °F 33.8 °F 76% 29.91 in 10.0 mi East 8.1 mph - N/A   Clear
7:15 AM 41.0 °F 35.2 °F 33.8 °F 76% 29.91 in 10.0 mi East 9.2 mph - N/A   Mostly Cloudy
7:35 AM 41.0 °F 34.7 °F 33.8 °F 76% 29.92 in 7.0 mi East 10.4 mph - N/A   Overcast
7:55 AM 41.0 °F 35.8 °F 33.8 °F 76% 29.92 in 7.0 mi East 8.1 mph - N/A   Overcast
8:15 AM 42.8 °F 40.1 °F 33.8 °F 70% 29.91 in 7.0 mi East 4.6 mph - N/A   Overcast
8:35 AM 42.8 °F 38.6 °F 33.8 °F 70% 29.91 in 7.0 mi East 6.9 mph - N/A   Overcast
8:55 AM 42.8 °F 38.6 °F 35.6 °F 76% 29.90 in 7.0 mi ESE 6.9 mph - N/A   Overcast
9:15 AM 42.8 °F 40.1 °F 35.6 °F 76% 29.90 in 7.0 mi ESE 4.6 mph - N/A   Drizzle
9:35 AM 42.8 °F 39.3 °F 35.6 °F 76% 29.88 in 7.0 mi ESE 5.8 mph - N/A   Light Drizzle
9:55 AM 42.8 °F 37.0 °F 37.4 °F 81% 29.85 in 5.0 mi East 10.4 mph - N/A   Haze
10:15 AM 44.6 °F 40.7 °F 37.4 °F 76% 29.85 in 7.0 mi East 6.9 mph - N/A   Overcast
10:35 AM 46.4 °F 42.9 °F 39.2 °F 76% 29.83 in 7.0 mi East 6.9 mph - N/A   Overcast
10:55 AM 50.0 °F - 41.0 °F 71% 29.83 in 7.0 mi ESE 4.6 mph - N/A   Mostly Cloudy
11:15 AM 50.0 °F - 42.8 °F 76% 29.81 in 7.0 mi SE 4.6 mph - N/A   Mostly Cloudy
11:35 AM 51.8 °F - 42.8 °F 71% 29.80 in 10.0 mi SE 5.8 mph - N/A   Overcast
11:55 AM 53.6 °F - 44.6 °F 72% 29.80 in 4.0 mi Calm Calm - 0.01 in Rain Rain
12:15 PM 51.8 °F - 46.4 °F 82% 29.81 in 2.0 mi Calm Calm - 0.09 in Rain Heavy Rain
12:35 PM 53.6 °F - 50.0 °F 88% 29.79 in 4.0 mi Calm Calm - 0.10 in   Light Drizzle
12:55 PM 59.0 °F - 51.8 °F 77% 29.79 in 7.0 mi South 6.9 mph - 0.10 in   Mostly Cloudy
1:15 PM 62.6 °F - 53.6 °F 72% 29.78 in 10.0 mi SSW 12.7 mph 21.9 mph N/A   Mostly Cloudy
1:35 PM 62.6 °F - 51.8 °F 68% 29.77 in 10.0 mi SSW 9.2 mph 21.9 mph N/A   Overcast
1:55 PM 64.4 °F - 51.8 °F 64% 29.76 in 10.0 mi SSW 13.8 mph 21.9 mph N/A   Overcast
2:15 PM 64.4 °F - 51.8 °F 64% 29.76 in 10.0 mi SSW 18.4 mph 26.5 mph N/A   Overcast
2:35 PM 68.0 °F - 53.6 °F 60% 29.76 in 10.0 mi SSW 16.1 mph 25.3 mph N/A   Overcast
2:55 PM 68.0 °F - 51.8 °F 56% 29.76 in 10.0 mi SW 17.3 mph 24.2 mph N/A   Mostly Cloudy
3:15 PM 69.8 °F - 51.8 °F 53% 29.76 in 10.0 mi SW 19.6 mph 28.8 mph N/A   Mostly Cloudy
3:35 PM 69.8 °F - 51.8 °F 53% 29.75 in 10.0 mi SW 20.7 mph 31.1 mph N/A   Mostly Cloudy
3:55 PM 71.6 °F - 50.0 °F 46% 29.75 in 10.0 mi WSW 18.4 mph 32.2 mph N/A   Mostly Cloudy
4:15 PM 69.8 °F - 50.0 °F 49% 29.76 in 10.0 mi WSW 12.7 mph 25.3 mph N/A   Mostly Cloudy
4:35 PM 71.6 °F - 48.2 °F 43% 29.76 in 10.0 mi WSW 20.7 mph 28.8 mph N/A   Mostly Cloudy
4:55 PM 71.6 °F - 48.2 °F 43% 29.77 in 10.0 mi WSW 18.4 mph 31.1 mph N/A   Scattered Clouds
5:15 PM 71.6 °F - 50.0 °F 46% 29.77 in 10.0 mi WSW 19.6 mph 31.1 mph N/A   Clear
5:35 PM 71.6 °F - 50.0 °F 46% 29.78 in 10.0 mi WSW 12.7 mph 25.3 mph N/A   Scattered Clouds
5:55 PM 71.6 °F - 50.0 °F 46% 29.78 in 10.0 mi WSW 13.8 mph 25.3 mph N/A   Mostly Cloudy
6:15 PM 71.6 °F - 50.0 °F 46% 29.79 in 10.0 mi WSW 12.7 mph 19.6 mph N/A   Mostly Cloudy
6:35 PM 71.6 °F - 44.6 °F 38% 29.80 in 10.0 mi WSW 16.1 mph 26.5 mph N/A   Clear
6:55 PM 69.8 °F - 44.6 °F 40% 29.82 in 10.0 mi West 13.8 mph 27.6 mph N/A   Clear
7:15 PM 69.8 °F - 46.4 °F 43% 29.83 in 10.0 mi West 12.7 mph - N/A   Scattered Clouds
7:35 PM 68.0 °F - 46.4 °F 46% 29.84 in 10.0 mi WNW 13.8 mph 19.6 mph N/A   Scattered Clouds
7:55 PM 62.6 °F - 48.2 °F 59% 29.86 in 10.0 mi NW 11.5 mph 19.6 mph N/A   Clear
8:15 PM 60.8 °F - 46.4 °F 59% 29.87 in 10.0 mi NW 11.5 mph 17.3 mph N/A   Clear
8:35 PM 59.0 °F - 46.4 °F 63% 29.88 in 10.0 mi NW 10.4 mph - N/A   Clear
8:55 PM 57.2 °F - 46.4 °F 67% 29.90 in 10.0 mi NW 5.8 mph - N/A   Clear
9:15 PM 55.4 °F - 44.6 °F 67% 29.91 in 10.0 mi NW 6.9 mph - N/A   Clear
9:35 PM 53.6 °F - 42.8 °F 67% 29.92 in 10.0 mi NW 4.6 mph - N/A   Clear
9:55 PM 55.4 °F - 42.8 °F 63% 29.93 in 10.0 mi NW 6.9 mph - N/A   Clear
10:15 PM 53.6 °F - 42.8 °F 67% 29.95 in 10.0 mi NW 4.6 mph - N/A   Clear
10:35 PM 53.6 °F - 42.8 °F 67% 29.97 in 10.0 mi Calm Calm - N/A   Clear
10:55 PM 51.8 °F - 42.8 °F 71% 29.97 in 10.0 mi NW 3.5 mph - N/A   Clear
11:15 PM 50.0 °F - 42.8 °F 76% 29.98 in 10.0 mi Calm Calm - N/A   Clear
11:35 PM 48.2 °F - 41.0 °F 76% 29.98 in 10.0 mi Calm Calm - N/A   Clear
11:55 PM 48.2 °F - 41.0 °F 76% 30.00 in 10.0 mi Calm Calm - N/A   Scattered Clouds